This is the latest recevied weather packets stored in our database for station/object VE6CWS-7. If no packets are shown the sender has not sent any weather packets the latest 10 day(s).
| Time | Temp. | Humidity | Pressure | Rain* | Wind** | Luminosity | Snow |
|---|---|---|---|---|---|---|---|
| 1777735834 | 11.11° C | 61% | 1017.9 hPa | 0 mm | - | - | - |
| 1777734933 | 10.56° C | 63% | 1017.8 hPa | 0 mm | - | - | - |
| 1777734093 | 10.56° C | 64% | 1017.9 hPa | 0 mm | - | - | - |
| 1777733152 | 10.56° C | 63% | 1017.9 hPa | 0 mm | - | - | - |
| 1777732252 | 10° C | 64% | 1017.7 hPa | 0 mm | - | - | - |
| 1777731360 | 9.44° C | 66% | 1017.8 hPa | 0 mm | - | - | - |
| 1777730508 | 9.44° C | 65% | 1017.7 hPa | 0 mm | - | - | - |
| 1777729548 | 9.44° C | 66% | 1017.6 hPa | 0 mm | - | - | - |
| 1777728647 | 9.44° C | 68% | 1017.4 hPa | 0 mm | - | - | - |
| 1777727744 | 8.89° C | 69% | 1017.1 hPa | 0 mm | - | - | - |
| 1777726905 | 9.44° C | 68% | 1017 hPa | 0 mm | - | - | - |
| 1777725944 | 9.44° C | 68% | 1016.9 hPa | 0 mm | - | - | - |
| 1777725046 | 9.44° C | 68% | 1016.9 hPa | 0 mm | - | - | - |
| 1777724144 | 8.89° C | 71% | 1016.9 hPa | 0 mm | - | - | - |
| 1777723298 | 8.33° C | 73% | 1016.9 hPa | 0 mm | - | - | - |
| 1777722342 | 8.33° C | 74% | 1016.9 hPa | 0 mm | - | - | - |
| 1777721438 | 8.89° C | 72% | 1016.8 hPa | 0 mm | - | - | - |
| 1777720540 | 8.89° C | 72% | 1017 hPa | 0 mm | - | - | - |
| 1777719694 | 8.89° C | 71% | 1016.8 hPa | 0 mm | - | - | - |
| 1777718756 | 9.44° C | 71% | 1016.9 hPa | 0 mm | - | - | - |
| 1777717867 | 9.44° C | 70% | 1016.8 hPa | 0 mm | - | - | - |
| 1777716964 | 9.44° C | 70% | 1016.7 hPa | 0 mm | - | - | - |
| 1777716109 | 9.44° C | 68% | 1016.7 hPa | 0 mm | - | - | - |
| 1777715154 | 10° C | 67% | 1016.6 hPa | 0 mm | - | - | - |
| 1777714261 | 10° C | 66% | 1016.5 hPa | 0 mm | - | - | - |
* Rain latest hour (hover to see other rain measurements)
** Current wind speed in m/s (hover to see current wind gust speed)